QPF
0.01 0.01 0.02 0.02 0.01 0.01 0.02 0.05 0.08 0.08 0.08 0.06 0.04 0.03 0.02 0.02 0.02 0.02 0.02 0.04 0.06 0.03 0.01 0.01 0.01 0.01 0.01 0.01 0.01 0.02 0.02 0.04 0.04 0.05 0.05 0.03 0.03 0.03 0.03 0.03 0.02 0.03 0.02 0.02
0.01 0.01 0.01 0.01 0.01 0.02 0.02 0.03 0.05 0.06 0.08 0.07 0.05 0.04 0.03 0.02 0.02 0.03 0.04 0.04 0.02 0.01 0.01 0.01 0.01 0.00 0.00 0.01 0.02 0.02 0.03 0.04 0.03 0.03 0.03 0.02 0.03 0.02 0.02 0.02 0.02 0.02 0.02 0.02
0.01 0.00 0.01 0.02 0.03 0.03 0.04 0.04 0.05 0.06 0.07 0.06 0.04 0.03 0.03 0.04 0.04 0.03 0.02 0.02 0.01 0.02 0.02 0.01 0.01 0.01 0.01 0.01 0.02 0.01 0.01 0.02 0.02 0.02 0.02 0.03 0.03 0.02 0.02 0.02 0.02 0.02 0.01 0.01
0.00 0.01 0.02 0.03 0.02 0.02 0.03 0.03 0.04 0.04 0.03 0.03 0.02 0.02 0.03 0.03 0.03 0.02 0.01 0.01 0.01 0.02 0.01 0.01 0.01 0.01 0.02 0.02 0.02 0.02 0.02 0.02 0.02 0.02 0.02 0.03 0.02 0.02 0.02 0.03 0.04 0.04 0.03 0.03
0.01 0.01 0.01 0.01 0.02 0.01 0.02 0.03 0.02 0.02 0.01 0.01 0.01 0.02 0.03 0.02 0.02 0.02 0.01 0.01 0.02 0.02 0.02 0.01 0.01 0.01 0.01 0.01 0.01 0.01 0.02 0.03 0.02 0.02 0.02 0.02 0.02 0.02 0.02 0.02 0.03 0.05 0.06 0.06
0.01 0.01 0.01 0.01 0.01 0.00 0.01 0.03 0.02 0.02 0.02 0.02 0.01 0.02 0.03 0.02 0.02 0.01 0.01 0.01 0.02 0.01 0.02 0.01 0.01 0.01 0.01 0.00 0.00 0.01 0.02 0.03 0.03 0.02 0.02 0.02 0.02 0.02 0.02 0.02 0.03 0.04 0.06 0.08
0.00 0.01 0.01 0.01 0.01 0.01 0.02 0.04 0.02 0.02 0.03 0.03 0.03 0.04 0.03 0.02 0.01 0.01 0.02 0.01 0.01 0.01 0.01 0.01 0.01 0.01 0.01 0.00 0.01 0.01 0.03 0.04 0.03 0.01 0.02 0.02 0.02 0.02 0.02 0.02 0.02 0.03 0.04 0.04
0.01 0.02 0.02 0.01 0.01 0.02 0.02 0.02 0.02 0.02 0.03 0.04 0.03 0.03 0.02 0.02 0.01 0.02 0.03 0.02 0.01 0.01 0.01 0.01 0.00 0.01 0.01 0.01 0.01 0.02 0.03 0.03 0.02 0.01 0.01 0.01 0.02 0.02 0.02 0.02 0.02 0.03 0.03 0.03
0.02 0.03 0.03 0.02 0.02 0.02 0.01 0.02 0.02 0.03 0.03 0.04 0.04 0.03 0.02 0.03 0.03 0.03 0.03 0.03 0.01 0.01 0.01 0.01 0.00 0.01 0.01 0.02 0.02 0.04 0.04 0.02 0.01 0.01 0.01 0.01 0.01 0.01 0.01 0.01 0.01 0.02 0.02 0.03
0.02 0.02 0.02 0.02 0.01 0.01 0.01 0.01 0.02 0.02 0.03 0.04 0.04 0.04 0.03 0.03 0.03 0.03 0.03 0.02 0.01 0.00 0.00 0.00 0.00 0.00 0.01 0.03 0.05 0.05 0.03 0.01 0.01 0.01 0.02 0.02 0.02 0.01 0.01 0.01 0.01 0.01 0.01 0.01
0.02 0.02 0.01 0.01 0.01 0.01 0.00 0.01 0.01 0.02 0.03 0.04 0.05 0.05 0.05 0.04 0.03 0.03 0.02 0.02 0.01 0.01 0.00 0.00 0.01 0.02 0.03 0.04 0.04 0.02 0.01 0.01 0.02 0.02 0.02 0.02 0.01 0.01 0.01 0.01 0.01 0.01 0.01 0.01
0.03 0.02 0.01 0.01 0.01 0.01 0.00 0.01 0.01 0.01 0.01 0.01 0.02 0.03 0.03 0.02 0.02 0.01 0.01 0.00 0.01 0.01 0.01 0.02 0.04 0.04 0.03 0.02 0.01 0.02 0.02 0.02 0.02 0.02 0.01 0.01 0.01 0.01 0.01 0.01 0.01 0.01 0.02 0.01
0.01 0.01 0.01 0.02 0.01 0.01 0.01 0.01 0.01 0.01 0.01 0.01 0.01 0.01 0.01 0.02 0.01 0.01 0.01 0.01 0.01 0.03 0.03 0.05 0.04 0.02 0.02 0.01 0.02 0.02 0.02 0.02 0.02 0.01 0.01 0.01 0.01 0.02 0.03 0.03 0.05 0.04 0.02 0.01
0.01 0.02 0.02 0.01 0.02 0.01 0.01 0.01 0.01 0.01 0.00 0.00 0.01 0.01 0.01 0.01 0.01 0.01 0.01 0.02 0.02 0.03 0.03 0.02 0.02 0.02 0.02 0.02 0.02 0.02 0.01 0.02 0.02 0.01 0.01 0.01 0.01 0.02 0.04 0.04 0.05 0.06 0.06 0.04
0.02 0.02 0.01 0.01 0.01 0.02 0.01 0.01 0.00 0.00 0.01 0.01 0.01 0.02 0.02 0.02 0.02 0.02 0.02 0.02 0.02 0.02 0.02 0.02 0.02 0.02 0.02 0.01 0.02 0.02 0.01 0.02 0.02 0.01 0.02 0.02 0.01 0.01 0.02 0.03 0.04 0.05 0.05 0.05
0.03 0.02 0.01 0.01 0.01 0.01 0.01 0.00 0.00 0.01 0.02 0.02 0.02 0.02 0.02 0.01 0.01 0.01 0.01 0.02 0.02 0.02 0.03 0.02 0.03 0.03 0.02 0.02 0.02 0.02 0.02 0.02 0.01 0.01 0.01 0.01 0.01 0.01 0.01 0.01 0.01 0.02 0.03 0.03
0.03 0.02 0.01 0.01 0.01 0.01 0.01 0.01 0.01 0.01 0.02 0.02 0.01 0.01 0.00 0.01 0.01 0.01 0.02 0.03 0.03 0.04 0.03 0.02 0.02 0.03 0.02 0.02 0.02 0.03 0.02 0.02 0.01 0.01 0.01 0.00 0.00 0.00 0.01 0.01 0.01 0.01 0.02 0.01
0.03 0.02 0.02 0.01 0.01 0.01 0.00 0.00 0.01 0.01 0.01 0.01 0.00 0.00 0.00 0.01 0.01 0.02 0.02 0.03 0.03 0.03 0.03 0.02 0.02 0.03 0.03 0.02 0.02 0.02 0.03 0.03 0.01 0.00 0.00 0.00 0.00 0.00 0.01 0.01 0.00 0.00 0.00 0.00
0.02 0.02 0.02 0.01 0.00 0.00 0.00 0.00 0.00 0.00 0.00 0.00 0.00 0.00 0.00 0.01 0.01 0.02 0.03 0.03 0.03 0.03 0.03 0.02 0.02 0.03 0.02 0.02 0.01 0.01 0.02 0.01 0.00 0.00 0.00 0.00 0.00 0.01 0.01 0.00 0.00 0.00 0.00 0.00
0.01 0.02 0.02 0.00 0.00 0.00 0.00 0.00 0.00 0.00 0.00 0.00 0.00 0.00 0.00 0.01 0.01 0.02 0.03 0.03 0.03 0.03 0.02 0.01 0.01 0.01 0.01 0.01 0.01 0.01 0.01 0.01 0.00 0.01 0.01 0.00 0.01 0.01 0.00 0.00 0.00 0.00 0.00 0.00
0.02 0.01 0.01 0.00 0.00 0.00 0.00 0.00 0.00 0.00 0.00 0.00 0.00 0.00 0.01 0.01 0.01 0.02 0.03 0.03 0.02 0.03 0.02 0.01 0.01 0.01 0.01 0.01 0.00 0.00 0.00 0.00 0.00 0.01 0.00 0.00 0.01 0.01 0.01 0.00 0.00 0.00 0.00 0.00
0.02 0.02 0.01 0.00 0.00 0.00 0.00 0.00 0.00 0.00 0.00 0.00 0.00 0.00 0.01 0.01 0.01 0.01 0.02 0.02 0.03 0.03 0.02 0.01 0.01 0.00 0.00 0.00 0.00 0.00 0.00 0.00 0.00 0.00 0.00 0.00 0.01 0.01 0.01 0.00 0.00 0.00 0.00 0.00
0.02 0.01 0.01 0.00 0.00 0.00 0.00 0.00 0.00 0.00 0.00 0.00 0.00 0.01 0.01 0.01 0.01 0.02 0.02 0.02 0.02 0.01 0.01 0.00 0.00 0.00 0.00 0.00 0.00 0.00 0.00 0.00 0.00 0.00 0.00 0.00 0.01 0.01 0.01 0.00 0.00 0.00 0.00 0.00
0.02 0.01 0.00 0.00 0.00 0.00 0.00 0.00 0.00 0.00 0.00 0.01 0.01 0.01 0.01 0.02 0.02 0.02 0.01 0.02 0.02 0.01 0.00 0.00 0.00 0.00 0.00 0.00 0.00 0.00 0.00 0.00 0.00 0.00 0.00 0.00 0.00 0.00 0.01 0.00 0.00 0.00 0.00 0.00
0.02 0.01 0.01 0.00 0.00 0.00 0.00 0.00 0.01 0.01 0.00 0.01 0.00 0.01 0.02 0.02 0.02 0.02 0.01 0.01 0.01 0.01 0.01 0.00 0.00 0.00 0.00 0.00 0.00 0.00 0.00 0.00 0.00 0.00 0.00 0.00 0.00 0.00 0.00 0.00 0.00 0.00 0.00 0.00
0.02 0.02 0.01 0.01 0.00 0.00 0.00 0.00 0.01 0.01 0.01 0.01 0.01 0.01 0.02 0.01 0.01 0.01 0.00 0.00 0.01 0.01 0.01 0.01 0.00 0.00 0.01 0.00 0.00 0.01 0.01 0.01 0.00 0.00 0.00 0.00 0.00 0.00 0.00 0.00 0.00 0.00 0.00 0.00
0.03 0.02 0.02 0.01 0.00 0.00 0.00 0.00 0.01 0.01 0.01 0.01 0.01 0.01 0.01 0.01 0.01 0.01 0.00 0.00 0.01 0.01 0.01 0.00 0.00 0.00 0.00 0.01 0.02 0.03 0.02 0.01 0.01 0.01 0.00 0.00 0.00 0.00 0.00 0.00 0.00 0.00 0.00 0.00
MSLP
1015.11 1015.04 1015.09 1015.25 1015.46 1015.64 1015.70 1015.58 1015.22 1014.64 1013.84 1012.89 1011.89 1010.93 1010.09 1009.45 1009.04 1008.86 1008.88 1009.04 1009.30 1009.58 1009.84 1010.05 1010.20 1010.31 1010.38 1010.45 1010.52 1010.60 1010.70 1010.80 1010.90 1010.98 1011.04 1011.06 1011.06 1011.05 1011.04 1011.02 1011.02 1011.02 1011.01 1010.97
1015.01 1014.92 1014.95 1015.08 1015.26 1015.43 1015.50 1015.41 1015.11 1014.60 1013.89 1013.05 1012.15 1011.28 1010.54 1009.96 1009.60 1009.45 1009.49 1009.66 1009.91 1010.18 1010.43 1010.63 1010.77 1010.86 1010.90 1010.94 1010.96 1011.01 1011.06 1011.11 1011.16 1011.19 1011.20 1011.18 1011.14 1011.09 1011.05 1011.02 1011.02 1011.02 1011.02 1011.01
1014.88 1014.79 1014.80 1014.92 1015.07 1015.22 1015.29 1015.22 1014.96 1014.52 1013.90 1013.16 1012.38 1011.63 1010.98 1010.48 1010.18 1010.06 1010.10 1010.25 1010.48 1010.72 1010.93 1011.10 1011.21 1011.26 1011.29 1011.30 1011.30 1011.31 1011.33 1011.34 1011.34 1011.32 1011.28 1011.21 1011.13 1011.06 1010.99 1010.95 1010.95 1010.97 1011.01 1011.03
1014.75 1014.69 1014.71 1014.82 1014.96 1015.09 1015.14 1015.07 1014.85 1014.45 1013.91 1013.28 1012.60 1011.95 1011.40 1010.98 1010.72 1010.62 1010.66 1010.79 1010.98 1011.17 1011.34 1011.46 1011.53 1011.56 1011.57 1011.56 1011.55 1011.54 1011.53 1011.51 1011.48 1011.42 1011.33 1011.22 1011.10 1010.99 1010.91 1010.87 1010.87 1010.92 1010.98 1011.06
1014.65 1014.64 1014.70 1014.82 1014.96 1015.07 1015.11 1015.03 1014.81 1014.45 1013.96 1013.39 1012.80 1012.24 1011.77 1011.42 1011.20 1011.12 1011.15 1011.26 1011.40 1011.54 1011.66 1011.74 1011.78 1011.79 1011.78 1011.76 1011.74 1011.72 1011.70 1011.67 1011.61 1011.52 1011.40 1011.26 1011.11 1010.98 1010.89 1010.84 1010.86 1010.93 1011.03 1011.14
1014.58 1014.64 1014.75 1014.90 1015.05 1015.15 1015.17 1015.08 1014.85 1014.49 1014.04 1013.52 1012.98 1012.49 1012.08 1011.78 1011.60 1011.54 1011.55 1011.63 1011.74 1011.84 1011.91 1011.96 1011.97 1011.96 1011.95 1011.93 1011.91 1011.90 1011.88 1011.83 1011.76 1011.66 1011.53 1011.38 1011.22 1011.09 1011.00 1010.96 1010.99 1011.08 1011.20 1011.33
1014.52 1014.65 1014.82 1015.02 1015.18 1015.28 1015.28 1015.16 1014.91 1014.54 1014.10 1013.60 1013.12 1012.68 1012.32 1012.06 1011.91 1011.86 1011.87 1011.94 1012.01 1012.08 1012.12 1012.14 1012.14 1012.12 1012.10 1012.08 1012.08 1012.07 1012.05 1012.02 1011.96 1011.86 1011.74 1011.60 1011.46 1011.34 1011.27 1011.26 1011.31 1011.41 1011.55 1011.69
1014.46 1014.65 1014.87 1015.10 1015.27 1015.36 1015.34 1015.19 1014.92 1014.54 1014.10 1013.62 1013.16 1012.76 1012.45 1012.24 1012.12 1012.09 1012.12 1012.18 1012.24 1012.29 1012.31 1012.31 1012.30 1012.27 1012.24 1012.23 1012.23 1012.23 1012.23 1012.22 1012.18 1012.11 1012.02 1011.92 1011.82 1011.75 1011.72 1011.74 1011.82 1011.94 1012.09 1012.22
1014.35 1014.58 1014.84 1015.07 1015.25 1015.33 1015.28 1015.11 1014.81 1014.42 1013.98 1013.52 1013.10 1012.75 1012.48 1012.32 1012.25 1012.25 1012.30 1012.36 1012.43 1012.48 1012.49 1012.48 1012.45 1012.41 1012.38 1012.37 1012.37 1012.38 1012.39 1012.40 1012.39 1012.36 1012.32 1012.28 1012.24 1012.24 1012.27 1012.35 1012.47 1012.62 1012.77 1012.89
1014.18 1014.41 1014.67 1014.91 1015.07 1015.13 1015.06 1014.86 1014.55 1014.16 1013.73 1013.31 1012.93 1012.63 1012.43 1012.32 1012.31 1012.35 1012.44 1012.53 1012.61 1012.65 1012.66 1012.64 1012.60 1012.55 1012.50 1012.48 1012.48 1012.49 1012.51 1012.54 1012.56 1012.58 1012.60 1012.63 1012.67 1012.74 1012.85 1013.00 1013.17 1013.35 1013.51 1013.61
1013.93 1014.15 1014.39 1014.60 1014.73 1014.76 1014.66 1014.45 1014.14 1013.76 1013.36 1012.98 1012.67 1012.44 1012.31 1012.28 1012.32 1012.43 1012.56 1012.68 1012.77 1012.82 1012.83 1012.80 1012.74 1012.67 1012.61 1012.57 1012.54 1012.55 1012.57 1012.62 1012.67 1012.73 1012.80 1012.90 1013.01 1013.16 1013.35 1013.56 1013.79 1014.00 1014.18 1014.28
1013.64 1013.81 1014.01 1014.17 1014.26 1014.26 1014.14 1013.91 1013.61 1013.26 1012.91 1012.60 1012.36 1012.21 1012.16 1012.21 1012.33 1012.49 1012.66 1012.81 1012.92 1012.98 1012.98 1012.94 1012.86 1012.77 1012.68 1012.61 1012.57 1012.56 1012.57 1012.62 1012.69 1012.78 1012.90 1013.04 1013.22 1013.44 1013.69 1013.96 1014.23 1014.48 1014.68 1014.78
1013.31 1013.44 1013.58 1013.69 1013.74 1013.70 1013.56 1013.33 1013.05 1012.74 1012.44 1012.20 1012.04 1011.98 1012.02 1012.14 1012.32 1012.54 1012.75 1012.93 1013.05 1013.11 1013.10 1013.04 1012.95 1012.83 1012.72 1012.62 1012.56 1012.52 1012.53 1012.57 1012.65 1012.76 1012.90 1013.08 1013.30 1013.55 1013.84 1014.15 1014.46 1014.74 1014.95 1015.07
1012.98 1013.06 1013.16 1013.23 1013.23 1013.16 1013.00 1012.78 1012.52 1012.26 1012.02 1011.86 1011.78 1011.80 1011.91 1012.10 1012.33 1012.58 1012.82 1013.02 1013.14 1013.19 1013.18 1013.10 1012.98 1012.85 1012.72 1012.60 1012.52 1012.48 1012.47 1012.51 1012.58 1012.70 1012.85 1013.04 1013.27 1013.54 1013.84 1014.16 1014.48 1014.78 1015.00 1015.14
1012.66 1012.72 1012.79 1012.82 1012.79 1012.70 1012.53 1012.32 1012.09 1011.87 1011.69 1011.58 1011.57 1011.66 1011.82 1012.06 1012.33 1012.61 1012.86 1013.05 1013.17 1013.21 1013.18 1013.10 1012.97 1012.83 1012.69 1012.58 1012.49 1012.45 1012.44 1012.48 1012.55 1012.66 1012.81 1012.99 1013.21 1013.47 1013.76 1014.06 1014.37 1014.66 1014.90 1015.06
1012.36 1012.42 1012.48 1012.49 1012.45 1012.34 1012.17 1011.97 1011.76 1011.57 1011.44 1011.38 1011.42 1011.55 1011.76 1012.02 1012.31 1012.59 1012.84 1013.02 1013.13 1013.16 1013.13 1013.04 1012.91 1012.78 1012.65 1012.55 1012.48 1012.46 1012.47 1012.52 1012.60 1012.70 1012.84 1013.01 1013.20 1013.43 1013.68 1013.95 1014.23 1014.50 1014.73 1014.90
1012.06 1012.15 1012.22 1012.23 1012.18 1012.06 1011.90 1011.71 1011.52 1011.35 1011.25 1011.23 1011.30 1011.45 1011.68 1011.96 1012.24 1012.52 1012.76 1012.93 1013.03 1013.05 1013.02 1012.93 1012.82 1012.71 1012.62 1012.54 1012.52 1012.52 1012.57 1012.64 1012.74 1012.85 1012.99 1013.14 1013.30 1013.49 1013.70 1013.92 1014.16 1014.39 1014.60 1014.78
1011.78 1011.91 1011.99 1012.02 1011.97 1011.85 1011.68 1011.49 1011.31 1011.16 1011.07 1011.07 1011.16 1011.32 1011.56 1011.83 1012.12 1012.38 1012.61 1012.77 1012.87 1012.90 1012.87 1012.81 1012.73 1012.65 1012.60 1012.58 1012.59 1012.65 1012.74 1012.84 1012.97 1013.10 1013.24 1013.38 1013.52 1013.68 1013.84 1014.02 1014.21 1014.40 1014.59 1014.76
1011.50 1011.67 1011.78 1011.82 1011.77 1011.64 1011.47 1011.28 1011.09 1010.94 1010.86 1010.86 1010.96 1011.13 1011.36 1011.64 1011.92 1012.19 1012.41 1012.58 1012.69 1012.73 1012.73 1012.70 1012.66 1012.62 1012.62 1012.64 1012.71 1012.82 1012.95 1013.10 1013.26 1013.42 1013.57 1013.71 1013.84 1013.97 1014.10 1014.24 1014.39 1014.55 1014.71 1014.87
1011.25 1011.46 1011.58 1011.61 1011.56 1011.42 1011.23 1011.02 1010.82 1010.67 1010.58 1010.58 1010.67 1010.85 1011.09 1011.37 1011.66 1011.94 1012.18 1012.38 1012.51 1012.58 1012.62 1012.63 1012.63 1012.64 1012.68 1012.75 1012.86 1013.00 1013.17 1013.36 1013.55 1013.74 1013.90 1014.06 1014.19 1014.31 1014.43 1014.54 1014.67 1014.80 1014.94 1015.09
1011.06 1011.27 1011.39 1011.41 1011.33 1011.17 1010.95 1010.72 1010.49 1010.32 1010.22 1010.22 1010.31 1010.49 1010.74 1011.04 1011.35 1011.66 1011.94 1012.17 1012.35 1012.47 1012.56 1012.61 1012.66 1012.70 1012.78 1012.88 1013.02 1013.18 1013.37 1013.58 1013.79 1013.99 1014.18 1014.35 1014.50 1014.63 1014.75 1014.86 1014.98 1015.10 1015.23 1015.38
1010.96 1011.16 1011.25 1011.23 1011.11 1010.91 1010.65 1010.38 1010.12 1009.93 1009.81 1009.79 1009.88 1010.07 1010.33 1010.65 1011.00 1011.35 1011.68 1011.97 1012.20 1012.39 1012.53 1012.64 1012.72 1012.81 1012.90 1013.02 1013.16 1013.33 1013.52 1013.73 1013.94 1014.16 1014.36 1014.54 1014.72 1014.87 1015.01 1015.14 1015.26 1015.39 1015.53 1015.67
1010.97 1011.12 1011.16 1011.10 1010.92 1010.67 1010.36 1010.05 1009.76 1009.53 1009.38 1009.35 1009.43 1009.62 1009.89 1010.23 1010.62 1011.02 1011.40 1011.75 1012.06 1012.31 1012.51 1012.67 1012.80 1012.92 1013.03 1013.14 1013.28 1013.44 1013.61 1013.80 1014.01 1014.22 1014.42 1014.63 1014.82 1015.00 1015.17 1015.34 1015.49 1015.64 1015.79 1015.94
1011.07 1011.16 1011.14 1011.02 1010.79 1010.48 1010.13 1009.77 1009.44 1009.17 1009.00 1008.94 1009.00 1009.17 1009.45 1009.80 1010.21 1010.65 1011.08 1011.50 1011.87 1012.18 1012.46 1012.67 1012.85 1012.99 1013.12 1013.24 1013.36 1013.49 1013.64 1013.81 1014.00 1014.20 1014.41 1014.62 1014.84 1015.05 1015.26 1015.47 1015.66 1015.84 1016.02 1016.19
1011.24 1011.26 1011.18 1011.00 1010.72 1010.37 1009.98 1009.58 1009.22 1008.92 1008.70 1008.60 1008.63 1008.77 1009.03 1009.38 1009.79 1010.24 1010.71 1011.17 1011.60 1011.98 1012.31 1012.59 1012.81 1012.99 1013.14 1013.27 1013.39 1013.50 1013.64 1013.78 1013.94 1014.14 1014.34 1014.57 1014.82 1015.06 1015.31 1015.56 1015.80 1016.03 1016.24 1016.44
1011.41 1011.38 1011.25 1011.03 1010.72 1010.35 1009.93 1009.51 1009.12 1008.78 1008.53 1008.38 1008.36 1008.46 1008.66 1008.97 1009.36 1009.80 1010.28 1010.76 1011.23 1011.66 1012.04 1012.38 1012.66 1012.89 1013.07 1013.22 1013.35 1013.47 1013.60 1013.73 1013.89 1014.08 1014.29 1014.53 1014.80 1015.08 1015.37 1015.67 1015.95 1016.23 1016.48 1016.72
1011.52 1011.45 1011.30 1011.07 1010.76 1010.39 1009.98 1009.56 1009.15 1008.79 1008.50 1008.30 1008.22 1008.24 1008.38 1008.62 1008.94 1009.34 1009.79 1010.27 1010.75 1011.22 1011.65 1012.04 1012.37 1012.66 1012.89 1013.08 1013.25 1013.39 1013.53 1013.68 1013.85 1014.04 1014.27 1014.53 1014.82 1015.14 1015.47 1015.81 1016.14 1016.46 1016.76 1017.02
Thickness
5693 5694 5693 5688 5686 5686 5683 5681 5674 5673 5672 5671 5672 5672 5672 5673 5672 5672 5671 5671 5671 5671 5670 5669 5668 5667 5666 5665 5663 5661 5660 5657 5655 5652 5650 5647 5644 5641 5637 5634 5631 5628 5625 5622
5690 5694 5690 5684 5683 5682 5679 5678 5675 5673 5670 5674 5674 5673 5670 5669 5668 5668 5667 5667 5668 5668 5667 5666 5665 5664 5663 5662 5660 5658 5656 5654 5653 5650 5648 5644 5641 5638 5635 5631 5628 5625 5622 5619
5687 5692 5687 5677 5680 5678 5675 5675 5673 5667 5668 5670 5669 5667 5666 5666 5666 5665 5664 5664 5664 5664 5663 5663 5662 5661 5660 5659 5658 5656 5654 5652 5651 5648 5645 5642 5639 5636 5632 5628 5625 5621 5619 5615
5686 5683 5668 5676 5685 5681 5675 5673 5673 5670 5669 5668 5667 5667 5667 5666 5664 5663 5662 5661 5661 5661 5661 5661 5661 5659 5658 5658 5656 5653 5651 5650 5648 5646 5643 5639 5635 5631 5628 5625 5621 5618 5615 5612
5682 5677 5676 5678 5681 5678 5671 5667 5670 5666 5665 5665 5667 5668 5667 5664 5662 5660 5660 5659 5659 5659 5659 5658 5657 5657 5655 5654 5653 5651 5649 5647 5646 5644 5640 5636 5632 5628 5625 5622 5619 5616 5613 5609
5677 5667 5663 5672 5679 5681 5672 5662 5667 5664 5661 5660 5660 5658 5660 5660 5659 5659 5659 5659 5658 5658 5658 5656 5655 5654 5652 5651 5650 5649 5647 5645 5643 5641 5637 5633 5629 5626 5623 5619 5616 5614 5610 5606
5671 5666 5672 5675 5677 5675 5658 5655 5661 5661 5658 5656 5654 5652 5654 5656 5656 5657 5657 5657 5657 5657 5655 5654 5653 5652 5650 5649 5648 5647 5645 5643 5640 5637 5634 5630 5626 5623 5620 5617 5614 5610 5607 5603
5668 5662 5662 5672 5672 5663 5659 5661 5661 5659 5658 5654 5653 5653 5653 5653 5653 5654 5654 5655 5655 5653 5653 5653 5652 5650 5649 5647 5646 5645 5642 5640 5637 5634 5632 5629 5624 5621 5618 5615 5612 5608 5604 5600
5667 5666 5669 5671 5668 5667 5664 5660 5659 5658 5657 5654 5651 5650 5650 5650 5650 5650 5651 5651 5651 5651 5650 5650 5650 5649 5646 5645 5644 5642 5639 5637 5634 5631 5628 5625 5622 5619 5616 5613 5611 5607 5603 5598
5663 5668 5669 5668 5667 5664 5662 5659 5659 5658 5656 5654 5650 5649 5649 5648 5648 5647 5648 5649 5649 5648 5647 5647 5647 5647 5645 5644 5642 5639 5637 5634 5631 5628 5626 5622 5619 5617 5614 5611 5607 5603 5599 5595
5658 5662 5663 5664 5662 5660 5659 5658 5656 5655 5655 5653 5650 5648 5647 5646 5645 5645 5646 5646 5646 5646 5645 5645 5645 5644 5644 5642 5640 5637 5635 5632 5630 5627 5624 5619 5615 5611 5609 5604 5599 5596 5593 5589
5655 5660 5657 5657 5658 5658 5655 5654 5654 5652 5652 5652 5650 5647 5646 5644 5644 5644 5644 5645 5644 5644 5644 5644 5644 5643 5642 5641 5639 5636 5633 5631 5629 5626 5623 5620 5616 5611 5602 5598 5592 5588 5582 5578
5656 5658 5657 5656 5655 5655 5653 5653 5652 5651 5650 5648 5648 5646 5644 5643 5643 5643 5643 5643 5642 5643 5643 5643 5643 5642 5641 5640 5638 5635 5631 5629 5628 5626 5623 5621 5617 5613 5608 5598 5591 5585 5580 5574
5653 5651 5650 5651 5651 5652 5651 5651 5651 5650 5648 5647 5646 5645 5644 5642 5642 5642 5642 5643 5642 5643 5643 5643 5642 5641 5641 5639 5636 5634 5632 5628 5626 5625 5623 5620 5616 5613 5610 5605 5600 5593 5582 5573
5648 5648 5647 5648 5648 5648 5648 5648 5646 5646 5645 5644 5644 5643 5642 5641 5641 5642 5642 5642 5642 5642 5642 5642 5641 5640 5640 5638 5636 5633 5632 5630 5627 5625 5623 5620 5617 5614 5610 5604 5599 5595 5588 5578
5643 5644 5644 5643 5643 5644 5644 5643 5642 5642 5642 5641 5641 5641 5641 5641 5642 5642 5642 5641 5640 5640 5640 5640 5639 5638 5639 5637 5635 5632 5630 5625 5624 5624 5622 5620 5617 5613 5609 5604 5599 5594 5587 5581
5636 5636 5637 5638 5639 5639 5640 5640 5640 5640 5640 5639 5639 5640 5640 5640 5640 5639 5640 5640 5640 5639 5639 5639 5638 5638 5637 5636 5634 5634 5632 5627 5621 5623 5621 5619 5616 5612 5608 5604 5599 5594 5587 5577
5635 5635 5635 5635 5636 5636 5636 5637 5638 5638 5638 5639 5639 5639 5638 5638 5637 5637 5638 5639 5638 5638 5638 5638 5637 5636 5635 5634 5632 5633 5632 5629 5626 5623 5620 5617 5614 5611 5608 5604 5599 5594 5588 5581
5631 5632 5632 5632 5634 5634 5634 5634 5635 5636 5637 5638 5637 5636 5636 5637 5637 5637 5638 5637 5636 5635 5636 5636 5632 5633 5633 5632 5631 5630 5630 5628 5625 5622 5619 5613 5612 5610 5607 5603 5598 5593 5588 5582
5625 5627 5628 5629 5630 5630 5631 5632 5633 5634 5635 5636 5635 5634 5635 5635 5636 5636 5635 5635 5635 5636 5634 5633 5633 5633 5633 5632 5628 5631 5630 5628 5625 5622 5619 5616 5613 5610 5606 5602 5597 5592 5587 5581
5619 5621 5623 5624 5625 5626 5628 5629 5630 5631 5633 5633 5633 5633 5633 5634 5635 5634 5634 5634 5634 5634 5633 5630 5632 5633 5633 5630 5626 5631 5630 5627 5625 5622 5619 5616 5613 5609 5606 5602 5597 5591 5586 5581
5612 5614 5616 5619 5621 5622 5624 5626 5628 5629 5630 5631 5632 5632 5632 5631 5633 5633 5633 5633 5634 5630 5633 5635 5634 5631 5630 5627 5631 5631 5629 5626 5624 5621 5618 5615 5612 5608 5605 5601 5596 5591 5586 5581
5605 5608 5611 5613 5615 5617 5620 5623 5625 5626 5627 5628 5629 5630 5630 5631 5634 5634 5633 5634 5635 5630 5633 5635 5630 5626 5623 5627 5630 5629 5627 5625 5623 5621 5618 5614 5611 5607 5604 5600 5596 5591 5586 5580
5598 5601 5604 5607 5611 5613 5615 5619 5621 5623 5625 5627 5629 5629 5629 5631 5632 5635 5635 5631 5630 5629 5633 5629 5624 5623 5620 5628 5629 5628 5626 5624 5622 5621 5618 5614 5611 5608 5604 5600 5595 5591 5586 5580
5591 5594 5598 5601 5604 5609 5612 5615 5617 5620 5623 5627 5628 5629 5630 5632 5632 5634 5634 5633 5629 5628 5631 5627 5623 5621 5625 5629 5629 5627 5626 5624 5622 5620 5617 5613 5611 5608 5604 5600 5595 5591 5586 5581
5583 5588 5593 5596 5600 5605 5610 5613 5616 5618 5621 5623 5626 5627 5629 5631 5632 5632 5631 5632 5631 5628 5631 5630 5629 5624 5628 5629 5628 5626 5624 5621 5620 5618 5616 5613 5611 5607 5603 5599 5594 5590 5585 5580
5579 5584 5588 5593 5599 5603 5607 5610 5613 5615 5618 5620 5622 5624 5627 5628 5630 5630 5631 5632 5632 5632 5632 5632 5631 5630 5629 5628 5626 5624 5623 5621 5620 5618 5616 5613 5610 5606 5603 5598 5595 5590 5585 5580